Home > Weather > Nadi > Past weeks

Flag for Fiji Weather for the Past 2 Weeks in Nadi, Fiji

Now
75 °F

Passing clouds.


Feels Like: 75 °F
Forecast: 76 / 84 °F
Wind: 3 mph from Southeast

Location: Nandi

Current Time: May 6, 2016 at 3:00:46 AM

Latest Report: May 6, 2016 at 2:00 AM


Visibility: N/A

Pressure: 29.92 "Hg

Humidity: 83%

Dew Point: 70 °F

Location of NadiLocation

Historic Weather in Nadi — Graph

°F

Nadi Temperature Yesterday

Maximum temperature yesterday: 84 °F (at 12:00 PM)
Minimum temperature yesterday: 70 °F (at 4:00 AM)
Average temperature yesterday: 78 °F

High & Low Weather Summary for the Past Weeks

 TemperatureHumidityPressure
High88 °F (Apr 21, 12:00 PM)100% (Apr 24, 5:00 AM)30.01 "Hg (Apr 24, 5:00 AM)
Low68 °F (May 3, 5:00 AM)51% (May 2, 7:00 PM)29.74 "Hg (Apr 21, 3:00 PM)
Average78 °F77%29.87 "Hg
* Reported Apr 21 2:00 AM — May 6 2:00 AM, Nadi, Weather by CustomWeather, © 2016

Note: Actual official high and low records may vary slightly from our data, if they occured in-between our weather recording intervals... More about our weather records

Advertising

Nadi Weather History for the Previous 24 Hours

Scroll right to see more
 ConditionsComfort  
Time TempWeatherWind HumidityBarometerVisibility
2:00 AM
Fri, May 6
75 °FPassing clouds.3 mph83%29.92 "HgN/A
1:00 AM75 °FPassing clouds.3 mph83%29.92 "HgN/A
12:00 AM75 °FPassing clouds.3 mph83%29.92 "HgN/A
11:00 PM
Thu, May 5
75 °FPassing clouds.7 mph83%29.92 "HgN/A
10:00 PM77 °FPassing clouds.7 mph79%29.92 "HgN/A
9:00 PM77 °FPassing clouds.9 mph74%29.92 "HgN/A
8:00 PM77 °FPassing clouds.9 mph79%29.89 "HgN/A
7:00 PM79 °FPassing clouds.8 mph70%29.86 "HgN/A
6:00 PM81 °FPassing clouds.6 mph66%29.86 "HgN/A
5:00 PM82 °FScattered clouds.7 mph66%29.83 "HgN/A
4:00 PM84 °FScattered clouds.12 mph62%29.83 "HgN/A
3:00 PM84 °FScattered clouds.14 mph66%29.83 "HgN/A
2:00 PM84 °FScattered clouds.13 mph66%29.83 "HgN/A
1:00 PM84 °FScattered clouds.10 mph62%29.86 "HgN/A
12:00 PM84 °FScattered clouds.9 mph62%29.89 "HgN/A
11:00 AM82 °FPassing clouds.7 mph66%29.89 "HgN/A
10:00 AM82 °FPassing clouds.6 mph70%29.92 "HgN/A
9:00 AM82 °FPassing clouds.No wind70%29.92 "HgN/A
8:00 AM77 °FScattered clouds.3 mph79%29.92 "HgN/A
7:00 AM72 °FScattered clouds.5 mph94%29.89 "HgN/A
6:00 AM70 °FPassing clouds.5 mph94%29.89 "HgN/A
5:00 AM70 °FPassing clouds.5 mph100%29.86 "HgN/A
4:00 AM70 °FPassing clouds.5 mph100%29.86 "HgN/A
3:00 AM72 °FPassing clouds.3 mph94%29.86 "HgN/A
Weather by CustomWeather, © 2016

See weather overviewHow to use our weather pages